| time (UTC) | temp F | wind direction | speed knots | gust knots | rain 1hr in | rain 24hr in | rain mn in | humidity % | barometer mb |
| 20260508014555 | 63 | 335 | 4.3 | 10.4 | 0.00 | 0.13 | 0.09 | 38 | 1013.2 |
| 20260508013049 | 63 | 302 | 1.7 | 9.6 | 0.00 | 0.13 | 0.09 | 38 | 1013.2 |
| 20260508011552 | 63 | 302 | 5.2 | 11.3 | 0.00 | 0.13 | 0.09 | 38 | 1013.1 |
| 20260508010050 | 63 | 282 | 6.1 | 11.3 | 0.00 | 0.13 | 0.09 | 36 | 1013.2 |
| 20260508004549 | 64 | 338 | 4.3 | 10.4 | 0.00 | 0.13 | 0.09 | 37 | 1013.3 |
| 20260508003049 | 65 | 313 | 5.2 | 14.8 | 0.00 | 0.13 | 0.09 | 35 | 1013.1 |
| 20260508001551 | 65 | 313 | 7.0 | 15.6 | 0.00 | 0.13 | 0.09 | 38 | 1013.1 |
| 20260508000048 | 65 | 284 | 3.5 | 10.4 | 0.00 | 0.13 | 0.09 | 38 | 1013.2 |
| 20260507234556 | 65 | 237 | 1.7 | 13.9 | 0.00 | 0.13 | 0.09 | 39 | 1013.1 |
| 20260507233050 | 65 | 237 | 6.1 | 9.6 | 0.00 | 0.13 | 0.09 | 42 | 1013.1 |
| 20260507231554 | 64 | 254 | 2.6 | 7.0 | 0.00 | 0.13 | 0.09 | 45 | 1013.2 |
| 20260507230059 | 64 | 232 | 3.5 | 10.4 | 0.00 | 0.13 | 0.09 | 44 | 1013.3 |
| 20260507224556 | 64 | 344 | 2.6 | 8.7 | 0.00 | 0.13 | 0.09 | 43 | 1013.2 |
| 20260507223048 | 62 | 305 | 6.1 | 13.0 | 0.00 | 0.13 | 0.09 | 44 | 1013.4 |
| 20260507221551 | 64 | 252 | 5.2 | 11.3 | 0.00 | 0.13 | 0.09 | 44 | 1013.4 |
| 20260507220051 | 63 | 282 | 7.8 | 15.6 | 0.00 | 0.13 | 0.09 | 45 | 1013.2 |
| 20260507214613 | 63 | 294 | 4.3 | 14.8 | 0.00 | 0.13 | 0.09 | 43 | 1013.4 |
| 20260507213104 | 63 | 247 | 0.9 | 13.9 | 0.00 | 0.13 | 0.09 | 47 | 1013.6 |
| 20260507211606 | 62 | 320 | 7.8 | 13.9 | 0.00 | 0.13 | 0.09 | 49 | 1013.7 |
| 20260507210054 | 61 | 311 | 4.3 | 12.2 | 0.00 | 0.13 | 0.09 | 51 | 1013.7 |
| 20260507204558 | 61 | 352 | 6.1 | 12.2 | 0.00 | 0.13 | 0.09 | 53 | 1013.7 |
| 20260507203051 | 60 | 296 | 4.3 | 12.2 | 0.00 | 0.13 | 0.09 | 52 | 1013.9 |
| 20260507201550 | 60 | 308 | 4.3 | 10.4 | 0.00 | 0.13 | 0.09 | 54 | 1014.0 |
| 20260507200047 | 59 | 225 | 1.7 | 6.1 | 0.00 | 0.13 | 0.09 | 56 | 1013.9 |
| 20260507194619 | 59 | 301 | 3.5 | 10.4 | 0.00 | 0.13 | 0.09 | 54 | 1014.0 |
| 20260507193046 | 59 | 289 | 4.3 | 8.7 | 0.00 | 0.13 | 0.09 | 59 | 1014.3 |
| 20260507191553 | 57 | 287 | 0.9 | 6.1 | 0.00 | 0.13 | 0.09 | 59 | 1014.2 |
| 20260507190047 | 57 | 252 | 1.7 | 6.1 | 0.00 | 0.13 | 0.09 | 59 | 1014.4 |
| 20260507184602 | 56 | 0 | 0.9 | 7.0 | 0.00 | 0.13 | 0.09 | 60 | 1014.4 |
| 20260507183048 | 57 | 260 | 1.7 | 9.6 | 0.00 | 0.13 | 0.09 | 58 | 1014.6 |
| 20260507181547 | 56 | 246 | 1.7 | 10.4 | 0.00 | 0.13 | 0.09 | 64 | 1014.7 |
| 20260507180057 | 56 | 267 | 0.0 | 5.2 | 0.00 | 0.13 | 0.09 | 67 | 1014.7 |
| 20260507174550 | 55 | 307 | 0.9 | 5.2 | 0.00 | 0.13 | 0.09 | 71 | 1015.0 |
| 20260507173049 | 53 | 307 | 2.6 | 5.2 | 0.00 | 0.13 | 0.09 | 72 | 1015.0 |
| 20260507171551 | 52 | 0 | 0.0 | 2.6 | 0.00 | 0.13 | 0.09 | 80 | 1015.2 |
| 20260507170046 | 52 | 348 | 0.0 | 2.6 | 0.00 | 0.13 | 0.09 | 79 | 1015.0 |
| 20260507164549 | 52 | 24 | 0.0 | 4.3 | 0.00 | 0.13 | 0.09 | 80 | 1014.9 |
| 20260507163050 | 52 | 0 | 0.9 | 2.6 | 0.00 | 0.13 | 0.09 | 83 | 1014.7 |
| 20260507161550 | 52 | 136 | 1.7 | 3.5 | 0.00 | 0.13 | 0.09 | 81 | 1014.6 |
| 20260507160056 | 51 | 0 | 0.9 | 2.6 | 0.00 | 0.13 | 0.09 | 80 | 1014.7 |
| 20260507154557 | 51 | 146 | 0.0 | 1.7 | 0.00 | 0.13 | 0.09 | 91 | 1014.7 |
| 20260507153047 | 50 | 0 | 0.0 | 3.5 | 0.00 | 0.13 | 0.09 | 93 | 1014.7 |
| 20260507151554 | 49 | 0 | 0.0 | 2.6 | 0.00 | 0.13 | 0.09 | 93 | 1014.6 |
| 20260507150057 | 48 | 146 | 0.0 | 2.6 | 0.01 | 0.13 | 0.09 | 93 | 1014.5 |
| 20260507144551 | 48 | 0 | 0.0 | 1.7 | 0.01 | 0.13 | 0.09 | 94 | 1014.3 |
| 20260507143101 | 48 | 141 | 0.9 | 3.5 | 0.01 | 0.13 | 0.09 | 95 | 1014.2 |
| 20260507141552 | 47 | 137 | 2.6 | 6.1 | 0.01 | 0.13 | 0.09 | 96 | 1014.2 |
| 20260507140057 | 45 | 168 | 3.5 | 7.0 | 0.00 | 0.12 | 0.08 | 96 | 1014.2 |
| 20260507134558 | 45 | 180 | 1.7 | 10.4 | 0.00 | 0.12 | 0.08 | 96 | 1014.3 |
| 20260507133100 | 45 | 0 | 1.7 | 4.3 | 0.00 | 0.12 | 0.08 | 96 | 1013.9 |
| 20260507131608 | 45 | 0 | 0.9 | 3.5 | 0.00 | 0.12 | 0.08 | 96 | 1013.8 |
| 20260507130049 | 44 | 93 | 1.7 | 6.1 | 0.00 | 0.12 | 0.08 | 97 | 1013.9 |
| 20260507124551 | 44 | 247 | 1.7 | 3.5 | 0.00 | 0.12 | 0.08 | 96 | 1014.0 |
| 20260507123051 | 44 | 333 | 3.5 | 6.1 | 0.00 | 0.12 | 0.08 | 96 | 1013.9 |
| 20260507121554 | 44 | 148 | 2.6 | 5.2 | 0.00 | 0.12 | 0.08 | 96 | 1013.4 |
| 20260507120051 | 43 | 148 | 0.0 | 2.6 | 0.00 | 0.12 | 0.08 | 96 | 1013.4 |
| 20260507114549 | 44 | 148 | 1.7 | 5.2 | 0.00 | 0.12 | 0.08 | 96 | 1013.5 |
| 20260507113048 | 44 | 196 | 0.0 | 2.6 | 0.00 | 0.12 | 0.08 | 95 | 1013.5 |
| 20260507111547 | 44 | 198 | 1.7 | 4.3 | 0.00 | 0.12 | 0.08 | 95 | 1013.1 |
| 20260507110050 | 44 | 0 | 0.9 | 4.3 | 0.00 | 0.12 | 0.08 | 95 | 1013.2 |
| 20260507104548 | 44 | 171 | 0.9 | 3.5 | 0.00 | 0.12 | 0.08 | 94 | 1013.2 |
| 20260507103052 | 45 | 177 | 0.0 | 3.5 | 0.01 | 0.12 | 0.08 | 93 | 1013.2 |
| 20260507101554 | 45 | 177 | 1.7 | 6.1 | 0.02 | 0.12 | 0.08 | 93 | 1013.1 |
| 20260507100053 | 46 | 175 | 3.5 | 7.8 | 0.03 | 0.12 | 0.08 | 94 | 1013.1 |
| 20260507094551 | 46 | 144 | 0.9 | 6.1 | 0.06 | 0.12 | 0.08 | 93 | 1013.4 |
| 20260507093055 | 46 | 145 | 2.6 | 7.0 | 0.07 | 0.11 | 0.07 | 93 | 1013.4 |
| 20260507091552 | 46 | 146 | 0.9 | 7.0 | 0.06 | 0.10 | 0.06 | 91 | 1013.9 |
| 20260507090054 | 47 | 141 | 2.6 | 8.7 | 0.05 | 0.09 | 0.05 | 90 | 1013.4 |
| 20260507084554 | 47 | 355 | 2.6 | 10.4 | 0.02 | 0.06 | 0.02 | 87 | 1014.4 |
| 20260507083050 | 47 | 99 | 0.0 | 2.6 | 0.00 | 0.04 | 0.00 | 83 | 1013.3 |
| 20260507081550 | 48 | 0 | 0.9 | 5.2 | 0.00 | 0.04 | 0.00 | 80 | 1012.7 |
| 20260507080113 | 47 | 194 | 0.0 | 2.6 | 0.00 | 0.04 | 0.00 | 79 | 1012.4 |
| 20260507074554 | 49 | 0 | 0.0 | 4.3 | 0.00 | 0.04 | 0.00 | 77 | 1012.0 |
| 20260507073050 | 49 | 169 | 2.6 | 7.0 | 0.00 | 0.04 | 0.00 | 75 | 1011.9 |
| 20260507071607 | 46 | 140 | 3.5 | 6.1 | 0.00 | 0.04 | 0.00 | 86 | 1011.8 |
| 20260507070055 | 46 | 171 | 2.6 | 6.1 | 0.00 | 0.04 | 0.00 | 87 | 1011.8 |
| 20260507064552 | 47 | 163 | 1.7 | 5.2 | 0.00 | 0.04 | 0.00 | 87 | 1011.9 |
| 20260507063052 | 47 | 162 | 0.0 | 5.2 | 0.00 | 0.04 | 0.00 | 87 | 1011.9 |
| 20260507061556 | 48 | 149 | 1.7 | 4.3 | 0.00 | 0.04 | 0.00 | 88 | 1011.8 |
| 20260507060051 | 48 | 146 | 1.7 | 7.0 | 0.01 | 0.04 | 0.00 | 86 | 1011.8 |
| 20260507054554 | 49 | 148 | 3.5 | 8.7 | 0.01 | 0.04 | 0.04 | 87 | 1011.9 |
| 20260507053117 | 49 | 153 | 3.5 | 6.1 | 0.01 | 0.04 | 0.04 | 87 | 1012.1 |
| 20260507051601 | 49 | 182 | 3.5 | 7.0 | 0.02 | 0.04 | 0.04 | 87 | 1012.3 |
| 20260507050054 | 50 | 120 | 1.7 | 6.1 | 0.01 | 0.03 | 0.03 | 83 | 1012.4 |
| 20260507044557 | 50 | 154 | 0.9 | 6.1 | 0.02 | 0.03 | 0.03 | 82 | 1012.7 |
| 20260507043054 | 50 | 130 | 2.6 | 6.1 | 0.03 | 0.03 | 0.03 | 84 | 1012.5 |
| 20260507041557 | 50 | 148 | 1.7 | 6.1 | 0.02 | 0.02 | 0.02 | 85 | 1012.7 |
| 20260507040051 | 52 | 129 | 0.0 | 5.2 | 0.02 | 0.02 | 0.02 | 75 | 1012.9 |
| 20260507034556 | 56 | 119 | 1.7 | 17.4 | 0.01 | 0.01 | 0.01 | 61 | 1012.7 |
| 20260507033055 | 58 | 275 | 3.5 | 6.1 | 0.00 | 0.00 | 0.00 | 54 | 1012.7 |
| 20260507031600 | 60 | 193 | 0.9 | 8.7 | 0.00 | 0.00 | 0.00 | 45 | 1011.5 |
| 20260507030057 | 60 | 142 | 1.7 | 10.4 | 0.00 | 0.00 | 0.00 | 44 | 1011.4 |
| 20260507024603 | 61 | 250 | 4.3 | 13.0 | 0.00 | 0.00 | 0.00 | 44 | 1011.4 |
| 20260507023059 | 61 | 263 | 2.6 | 11.3 | 0.00 | 0.00 | 0.00 | 44 | 1011.4 |
| 20260507021555 | 62 | 0 | 0.9 | 9.6 | 0.00 | 0.00 | 0.00 | 44 | 1011.4 |
| 20260507020053 | 62 | 269 | 2.6 | 9.6 | 0.00 | 0.00 | 0.00 | 43 | 1011.4 |